Regional Weather Roundup
Issued by NWS

Home | Current Version | Previous Version | Graphics & Text | Print | Product List | Glossary On
Versions: 1 2 3 4 5 6 7 8 9 10 11 12 13 14 15 16 17 18 19 20 21 22 23 24 25 26 27 28 29 30 31 32 33 34 35 36 37 38 39 40 41 42 43 44 45 46 47 48 49 50
000
ASUS45 KABQ 301810
RWRNM
NEW MEXICO REGIONAL WEATHER ROUNDUP
NATIONAL WEATHER SERVICE ALBUQUERQUE NM
1200 PM MDT MON MAY 30 2016

NOTE: "FAIR" MEANS FEW OR NO CLOUDS BELOW 12,000 FEET AGL WITH NO
       SIGNIFICANT WEATHER OR OBSTRUCTIONS TO VISION.

      THIS PRODUCT IS RELEASED AS TWO VERSIONS.  ONE VERSION NEAR
      THE TOP OF THE HOUR CONTAINING PRELIMINARY DATA FROM ALBUQUERQUE
      AND OTHER STATIONS.  A FINAL VERSION WITH ADDITIONAL DATA IS
      ISSUED ABOUT 10 MINUTES AFTER THE HOUR.

NMZ501-503-504-510>518-301900-
NORTHWEST PLATEAU/NORTHCENTRAL MOUNTAINS

CITY           SKY/WX    TMP DP  RH WIND       PRES   REMARKS
FARMINGTON     FAIR      79  14   8 W7        30.08F
6HR MIN TEMP:  44; 6HR MAX TEMP:  79;

LOS ALAMOS     FAIR      72  29  20 SE12      30.19F
SANTA FE       FAIR      75  25  15 SW13      30.13F
6HR MIN TEMP:  45; 6HR MAX TEMP:  76;

TAOS           FAIR      72  27  18 SW6       30.17F
ANGEL FIRE     FAIR      65  25  21 W13G20    30.24F

$$
NMZ402-403-502-505>509-301900-
WESTCENTRAL MOUNTAINS/SOUTHWEST MOUNTAINS

CITY           SKY/WX    TMP DP  RH WIND       PRES   REMARKS
GALLUP         FAIR      71  17  12 VRB3G16   30.16F
6HR MIN TEMP:  37; 6HR MAX TEMP:  72;

GRANTS         FAIR      73  18  12 S5G17     30.16F
SILVER CITY      N/A     77  37  24 SW10G26   30.13S

$$
NMZ407-409-411-412-301900-
SOUTHERN DESERTS

CITY           SKY/WX    TMP DP  RH WIND       PRES   REMARKS
LORDSBURG      FAIR      86  41  20 SW17G23   30.03F
DEMING         FAIR      83  43  24 VRB5      30.04F
6HR MIN TEMP:  58; 6HR MAX TEMP:  84;

LAS CRUCES     FAIR      85  38  19 NW7G17    30.06F
HOLLOMAN AFB   FAIR      85  38  19 S6G20     30.02F
ALAMOGORDO     FAIR      84  39  20 SW9G18    30.04F
T OR C         FAIR      81  37  20 SW10G16   30.05F
6HR MIN TEMP:  60; 6HR MAX TEMP:  82;


$$
NMZ519>523-301900-
CENTRAL VALLEYS/CENTRAL HIGHLANDS

CITY           SKY/WX    TMP DP  RH WIND       PRES   REMARKS
ALBUQUERQUE    PTSUNNY   76  22  13 W7        30.10F
6HR MIN TEMP:  56; 6HR MAX TEMP:  76;

DOUBLE EAGLE   PTSUNNY   75  34  22 S7        30.13F
MORIARTY ARPT  FAIR      76  33  20 S9        30.15F
CLINES CORNERS FAIR      72  28  19 SW12      30.17F
6HR MIN TEMP:  44; 6HR MAX TEMP:  73;

BELEN          FAIR      78  22  12 SW3       30.09F
6HR MIN TEMP:  49; 6HR MAX TEMP:  78;

SOCORRO        FAIR      81  28  14 E7        30.05F
6HR MIN TEMP:  55; 6HR MAX TEMP:  82;


$$
NMZ524>526-539-540-301900-
SOUTHCENTRAL MOUNTAINS

CITY           SKY/WX    TMP DP  RH WIND       PRES   REMARKS
RUIDOSO          N/A     72  32  23 SW14G21   30.21F

$$
NMZ527>531-301900-
NORTHEAST HIGHLANDS/NORTHEAST PLAINS

CITY           SKY/WX    TMP DP  RH WIND       PRES   REMARKS
LAS VEGAS      FAIR      72  15  11 SW13G26   30.14F
6HR MIN TEMP:  43; 6HR MAX TEMP:  76;

RATON          FAIR      68  45  43 S5        30.10F
6HR MIN TEMP:  50; 6HR MAX TEMP:  68;

CLAYTON        FAIR      73  52  47 SW17      30.05F
6HR MIN TEMP:  50; 6HR MAX TEMP:  73;


$$
NMZ532>537-301900-
EASTCENTRAL PLAINS

CITY           SKY/WX    TMP DP  RH WIND       PRES   REMARKS
TUCUMCARI      FAIR      77  53  43 S14G24    30.04F
6HR MIN TEMP:  53; 6HR MAX TEMP:  77;

CANNON AFB     PTSUNNY   75  57  53 S10       30.08F
6HR MIN TEMP:  54; 6HR MAX TEMP:  75;

CLOVIS AIRPORT FAIR      75  55  50 S9G20     30.08F

$$
NMZ028-029-538-301900-
SOUTHEAST PLAINS

CITY           SKY/WX    TMP DP  RH WIND       PRES   REMARKS
ROSWELL        FAIR      74  54  49 SE5       30.05F
6HR MIN TEMP:  62; 6HR MAX TEMP:  75;

ARTESIA        FAIR      75  59  57 SE9       30.05F
CARLSBAD       FAIR      79  58  48 E10       30.03F
6HR MIN TEMP:  61; 6HR MAX TEMP:  79;

HOBBS          MOSUNNY   75  61  60 E12       30.09F


$$



USA.gov is the U.S. government's official web portal to all federal, state and local government web resources and services.